www.pogodaiklimat.ru

Погода и климат >> Архив погоды >> Россия >> Краснодарский край >> Белая Глина


ПОГОДА в Белой Глине

  • Прогноз погоды в Белой Глине
  • Монитор погоды в Белой Глине

АРХИВ ПОГОДЫ в Белой Глине

Время (UTC), дата Ветер
(напр.,м/с)
 
Видим.   Явления Облачность Т
(С)
Тd
(С)
f
(%)
Тe
(С)
Тes
(С)
Комфортность P
(гПа)
Po
(гПа)
Тmin
(С)
Tmax
(С)
R
(мм)
R24
(мм)
S
(см)
15 15.09 С 2 10 км ясно +22.7 +5.2 32 +23 +23 комфорт 1019.2 1011.2 +26.1
18 15.09 С 1 10 км ясно +16.8 +4.5 44 +18 +18 1020.7 1012.5
21 15.09 штиль 0 10 км ясно +11.6 -0.4 43 +11 +11 1020.8 1012.4
00 16.09 штиль 0 10 км ясно +8.6 -0.3 54 +8 +8 1020.5 1012.0
03 16.09 штиль 0 10 км ясно +7.4 -0.9 56 +7 +7 1019.7 1011.2 +7.1
06 16.09 СВ 1 10 км ясно +17.2 +5.0 44 +18 +24 1018.4 1010.2
09 16.09 С 1 10 км ясно +24.1 +4.7 28 +24 +37 комфорт 1016.0 1008.0
12 16.09 З 4 10 км ясно +27.2 +4.8 24 +26 +30 жарко 1013.1 1005.2
15 16.09 З 2 10 км ясно +24.8 +4.4 27 +24 +24 комфорт 1012.1 1004.2 +27.5
18 16.09 З 1 10 км ясно +18.0 +1.9 34 +19 +19 1012.8 1004.7
21 16.09 З 2 10 км ясно +14.9 -0.8 34 +15 +15 1012.9 1004.7
00 17.09 ЮЗ 2 10 км ясно +12.3 +0.3 44 +12 +12 1012.8 1004.5
03 17.09 ЮЗ 3 10 км ясно +12.7 +4.0 55 +12 +12 1012.7 1004.4 +12.0
06 17.09 ЮЗ 3 10 км ясно +19.9 +7.6 45 +21 +25 комфорт 1012.3 1004.2
09 17.09 ЮЗ 6-10
{10}
10 км ясно +25.4 +3.9 25 +25 +29 комфорт 1010.5 1002.6
12 17.09 З 5
{11}
10 км ясно +27.0 +3.0 21 +25 +29 комфорт 1009.1 1001.2
15 17.09 З 4
{10}
10 км 8/0
[Ac cast Ci]
+24.9 +2.9 24 +24 +24 комфорт 1008.8 1000.9 +27.3
18 17.09 З 4 10 км 10/0
[Ac lent Cs]
+22.4 +6.5 36 +23 +23 комфорт 1010.4 1002.4
21 17.09 ЮЗ 5
{11}
10 км 10/3 600 м
[Cb cap Ac lent]
+19.9 +9.5 51 +21 +21 комфорт 1010.7 1002.7
00 18.09 ЮЗ 6-11
{13}
10 км 10/4 600 м
[Cb cap Ac lent]
+19.9 +11.2 57 +21 +21 комфорт 1010.5 1002.4
03 18.09 ЮЗ 4
{11}
10 км 10/6 600 м
[Cb cap Ac lent]
+19.6 +12.3 63 +21 +21 комфорт 1010.6 1002.5 +19.6
06 18.09 ЮЗ 5
{13}
10 км в посл. час ливневой дождь 10/4 300 м
[Cb cap Ac As]
+18.4 +15.3 82 +19 +19 1011.6 1003.5 +16.7
09 18.09 ЮЗ 7-12
{12}
10 км {ливн. осадки} 8/3 300 м
[Cb cap Ac lent]
+23.3 +16.0 64 +28 +29 душно 1010.2 1002.3
12 18.09 ЮЗ 10-18
{18}
10 км {ливн. осадки} 6/0
[Ac lent]
+26.7 +10.8 37 +28 +28 жарко 1008.1 1000.3
15 18.09 ЮЗ 7-11
{20}
10 км 10/0
[Ac lent]
+24.5 +10.6 42 +26 +26 жарко 1007.7 999.8 +26.9 3
18 18.09 З 4
{18}
10 км в посл. час ливневой дождь 10/4 300 м
[Cb cap Ac lent]
+16.2 +14.3 89 +15 +15 1012.1 1004.0
21 18.09 З 3
{10}
10 км {ливн. осадки} 8/0
[Ac lent]
+15.9 +10.4 70 +15 +15 1014.4 1006.2
00 19.09 З 2 10 км {ливн. осадки} 10/3 300 м
[Cb cap Ac lent]
+12.9 +6.8 66 +12 +12 1016.5 1008.2
03 19.09 ЮЗ 2 10 км {ливн. осадки} 6/0
[Ac lent]
+10.9 +6.1 72 +10 +10 1018.2 1009.8 +10.9 3
06 19.09 З 4 10 км ясно +14.7 +4.6 51 +14 +17 1019.9 1011.6 +10.2
09 19.09 З 4 10 км 4/1 1500 м
[Cu hum Cc]
+17.4 +3.7 40 +17 +23 1020.0 1011.8
12 19.09 З 3 10 км 4/3 1500 м
[Cu hum Cc]
+19.1 +2.5 33 +20 +23 1019.7 1011.5
15 19.09 З 2 10 км 10/0
[Ac lent]
+17.1 +4.5 43 +17 +17 1020.0 1011.7 +19.3
18 19.09 ЮЗ 1 10 км 10/0
[Ac und]
+14.3 +5.5 55 +15 +15 1020.2 1011.9
21 19.09 штиль 0 10 км 10/0
[Ac und]
+13.5 +6.8 64 +13 +13 1020.4 1012.1
00 20.09 З 1 10 км 10/0
[Ac und]
+11.5 +7.0 74 +11 +11 1019.8 1011.4
03 20.09 штиль 0 10 км 10/0
[Ac As]
+11.8 +6.0 68 +11 +11 1019.4 1011.1 +11.1
06 20.09 ЮВ 2 4000 м слаб. ливневой дождь 10/8 300 м
[Cb cap Ac As]
+12.1 +8.7 80 +11 +11 1018.5 1010.2
09 20.09 С 1 10 км {ливн. осадки} 10/3 600 м
[Sc diur, vesp Ac lent]
+13.3 +7.7 69 +14 +15 1017.3 1009.0
12 20.09 С 1 10 км {ливн. осадки} 10/6 600 м
[Sc Ac lent]
+13.5 +7.1 65 +14 +14 1016.0 1007.7
15 20.09 С 2 4000 м слаб. ливневой дождь 10/10 300 м
[Cb cap]
+10.2 +7.4 83 +9 +9 1016.5 1008.1 +13.7 5
18 20.09 С 2 4000 м слаб. ливневой дождь 10/10 300 м
[Cb cap]
+8.9 +7.7 92 +7 +7 1017.5 1009.1
21 20.09 С 1 4000 м в посл. час ливневой дождь 10/6 300 м
[Cb cap Ac lent]
+8.3 +7.6 95 +7 +7 1016.4 1007.9
00 21.09 З 1 4000 м дымка {ливн. осадки} 10/3 300 м
[Cb cap Ac lent]
+7.6 +6.9 95 +7 +7 1016.7 1008.2
03 21.09 З 2 4000 м дымка 10/3 300 м
[Cb cap Ac lent]
+7.7 +7.0 95 +5 +5 1016.6 1008.1 +7.4 10
06 21.09 З 2 4000 м дымка 8/4 600 м
[Sc Ac trans]
+9.0 +7.7 92 +7 +9 1017.4 1008.9
09 21.09 ЮЗ 4 10 км 8/6 600 м
[Sc Ac cast]
+13.8 +7.5 66 +12 +14 1017.0 1008.7
12 21.09 СЗ 3
{12}
10 км в посл. час гроза {ливн. осадки} 6/3 600 м
[Cb cap Ac cast]
+12.3 +6.0 65 +11 +13 1017.2 1008.9
15 21.09 З 3 10 км 3/0
[Ac cast]
+13.0 +3.8 54 +12 +12 1017.3 1009.0 +15.4 2
18 21.09 ЮЗ 1
{10}
10 км ясно +7.6 +4.2 79 +7 +7 1019.8 1011.3
21 21.09 ЮЗ 3 10 км 6/0
[Ac cast]
+8.5 +4.3 75 +6 +6 1020.1 1011.7
00 22.09 ЮЗ 3 10 км ясно +7.2 +3.7 78 +4 +4 1020.7 1012.1
03 22.09 ЮЗ 2 10 км ясно +5.7 +3.3 85 +3 +3 1021.1 1012.6 +5.7
06 22.09 ЮЗ 5 10 км 3/0
[Ci fib]
+11.5 +5.6 67 +9 +11 1020.9 1012.5 +5.6
09 22.09 З 9-15
{16}
10 км 8/4 1000 м
[Cu med, cong Cc]
+16.1 +3.2 42 +14 +15 1018.8 1010.6
12 22.09 З 9-17
{17}
10 км 10/4 600 м
[Sc Ac und]
+16.0 +0.6 35 +14 +14 1017.5 1009.3

 

Местоположение метеостанции Белая Глина (Краснодарский край, Россия): широта 46.08 долгота 40.88 высота над уровнем моря 69 м.

В архиве по умолчанию представлена погода в Белой Глине за последнюю неделю. Архивные данные за месяц целиком и за предыдущие месяцы, начиная с января 2011 года, Вы можете получить, выбрав интересующий диапазон дат из раскрывающегося списка и нажав кнопку "Ввод!".


*Определитесь, кто Вы:
робот инопланетянин человек

Внимание! Время в таблицах - всемирное. Для получения местного времени необходимо прибавить поправку, которая равна 3 ч.

Смотрите также архив погоды в соседних городах и на ближайших метеорологических станциях:

Погода в Красногвардейском (Ставропольский край, Россия) (54 км)
Погода в Гиганте (Ростовская область, Россия) (61 км)
Погода в Тихорецке (Краснодарский край, Россия) (67 км)
Погода в Новоалександровске (Ставропольский край, Россия) (69 км)
Погода в Кропоткине (Краснодарский край, Россия) (76 км)
Погода в Сосыке (Краснодарский край, Россия) (81 км)
Погода в Городовиковске (Калмыкия, Россия) (84 км)
Погода в Зерноград (Ростовская область, Россия) (96 км)
Погода в Изобильном (Ставропольский край, Россия) (101 км)
Погода в Кущевской (Краснодарский край, Россия) (109 км)

Пояснения к столбцам:

Ветер - указаны скорость ветра в м/с - средняя за 10 мин, порывы в срок и между сроками (в фигурных скобках) и направление, откуда дует ветер: С - северный, СВ - северо-восточный, В - восточный, ЮВ - юго-восточный, Ю - южный, ЮЗ - юго-западный, З - западный, СЗ - северо-западный.
Видимость - горизонтальная дальность видимости в метрах или километрах. При видимости от 1 до 10 км при отсутствии осадков обычно наблюдается дымка, при ухудшении видимости до 1 км и менее - туман. В сухую погоду видимость может ухудшаться дымом, пылью или мглою.
Явления - указаны атмосферные явления, наблюдавшиеся в срок или в последний час перед сроком; фигурными скобками обозначены явления, наблюдавшиеся между сроками (за 1-3 часа до срока); квадратными скобками обозначены град или гололедные отложения с указанием их диаметра в мм.
Облачность - указаны через наклонную черту общая и нижняя облачность в баллах и высота нижней границы облаков в метрах; квадратными скобками обозначены формы облаков: Ci - перистые, Cs - перисто-слоистые, Cc - перисто-кучевые, Ac - высококучевые, As - высокослоистые, Sc - слоисто-кучевые, Ns - слоисто-дождевые, Cu - кучевые, Cb - кучево-дождевые. Подробнее классификацию облаков см. в Атласе облаков (PDF).
T - Температура воздуха - температура, измеренная на высоте 2 м над землей.
Td - Температура точки росы - температура, при понижении до которой содержащийся в воздухе водяной пар достигнет насыщения.
f - Относительная влажность воздуха - влажноcть воздуха, измеренная на высоте 2 м над землей.
Te - Эффективная температура - температура, которую ощущает одетый по сезону человек в тени. Характеристика душности погоды. При расчете учитывается влияние влажности воздуха и скорости ветра на теплоощущения человека.
Tes - Эффективная температура на солнце - температура, которую ощущает человек, с поправкой на солнечный нагрев. Характеристика знойности погоды. Зависит от высоты солнца над горизонтом, облачности и скорости ветра. Ночью, в пасмурную погоду, а также при ветре 12 м/с и более поправка равна нулю.
P - Атмосферное давление - приведенное к уровню моря атмосферное давление.
Po - Атмосферное давление - измеренное на уровне метеостанции атмосферное давление.
Tmin - Минимальная температура - минимум температуры воздуха на высоте 2 м над землей.
Tmax - Максимальная температура - максимум температуры воздуха на высоте 2 м над землей.
R - Количество осадков - Количество выпавших осадков за период времени, мм. При наведении курсора мыши на число - период времени, за который выпало указанное количество осадков.
R24 - Количество осадков - Количество выпавших осадков за 24 часа, мм.
S - Снежный покров - Высота снежного покрова, см. При наведении курсора мыши на число - состояние снежного покрова и степень покрытия местности в баллах.